FREGAT DEB, 45888

Orbit data source: Space-Track

FREGAT DEB, 45888 is space debris in LEO originally from a launch on Mon, 18 Jul 2011 UTC launched from the Tyuratam Missile And Space Complex (TTMTR). Debris objects in space refer to the collection of defunct objects orbiting the Earth. Examples of debris include non-operational satellites, rocket bodies, and fragments generated from explosions, collisions, or faulty payload assembly.

Loading next visibility...
Identifier
45888, 2011-037DH
Orbit
LEO
Country
Flag of CISCIS
Related business
Manufacturer
Lavochkin
Mission
Spacecraft
Bus & Motor
Unknown
Mass
Unknown
Launch date (UTC)
2011-07-18 (15 years ago)
Launch vehicle
Unknown
Launch site
Tyuratam Missile And Space Complex (TTMTR)
Object type
Payload
Rocket body
Debris
Shape & HBR
Unknown shape, 0.1 m
Radar Cross Section
Medium (>0.1 m² and <1 m²)

Expand to show TLE details & history
Last TLE update: 3 days ago

TLE from 3 days ago
0 FREGAT DEB
1 45888U 11037DH  26170.15014892  .00007863  00000-0  15971-2 0  9990
2 45888  51.4598 126.7461 1806559 348.3986   7.9947 11.47431016245789
Epoch: 2026-06-19T03:36Z
TLE epoch observation values (Epoch: 2026-06-19T03:36:12.866Z)
Latitude
-0.00005°
Longitude
165.30919°
Altitude
447.479 km
Speed
8.296 km/s
True Right ascension
08h 26m 59s
True Declination
0° 00' 00"
Sunlit
Object was in daylight at epoch
Visualization orbit readout
Latitude
Unknown
Longitude
Unknown
Altitude
Unknown
Speed
Unknown
Apparent Right ascension
Unknown
Apparent Declination
Unknown
Sunlit
N/A
Visualization observer readout
Local Sidereal Time
21:41:30
Azimuth
Unknown
Elevation
Unknown
Doppler factor
Unknown
Orbital elements
Apogee altitude
3,425.752 km
Perigee altitude
425.504 km
Semi-major axis
8,303.765 km
Eccentricity
0.18066
Inclination
51.4598°
RAAN
126.7461°
Arg. of periapsis
348.3986°
True anomaly
11.68807°
Mean anomaly
7.9947°
Eccentric anomaly
9.74709°
Mean motion
2.86834 °/min
Orbital period
125.51 mins
BSTAR
0.0015971
Loading maneuver chart data...
Computing Atmospheric mass density...
Loading historical data...
Loading historical data...
Loading historical data...
Loading historical data...
Loading historical data...
Loading historical data...
Loading historical data...

Documentation

Showing up to 5 results
|